Location: Marcé
(47.5801°N, 0.3280°W)
Time: 09:29:34
(UTC+01:00)

BlueWalker 3 - Pass Details

Date: 10 December 2022
Orbit: 499 x 517 km, 53.2° (Epoch: 29 January)

Event Time Altitude Azimuth Distance (km) Brightness Sun altitude
Rises 17:44:45 0° 297° (WNW) 2,636 6.1 -5.9°
Reaches altitude 10° 17:46:59 10° 301° (WNW) 1,743 5.1 -6.2°
Maximum altitude 17:50:54 62° 22° (NNE) 579 2.0 -6.8°
Drops below altitude 10° 17:54:47 10° 105° (ESE) 1,724 4.2 -7.4°
Enters shadow 17:56:31 - 108° (ESE) 2,421 5.0 -7.7°
